Marion, VA

9:48 AM EDT on June 26, 2017 (GMT -0400)
Mountain Empire

Weather History for KMKJ - March, 2013

Change the Weather History Date:

Friday, March 29, 2013

  Actual Average (KBLF) Record (KBLF)
Temperature  
Mean Temperature 40 °F -  
Max Temperature 54 °F 57 °F 78 °F (1989)
Min Temperature 26 °F 42 °F 18 °F (2015)
Degree Days  
Heating Degree Days 26    
Moisture  
Dew Point 25 °F    
Average Humidity 61    
Maximum Humidity 97    
Minimum Humidity 25    
Precipitation  
Precipitation 0.00 in - - ()
Sea Level Pressure  
Sea Level Pressure 30.26 in    
Wind  
Wind Speed 6 mph (WSW)    
Max Wind Speed 17 mph    
Max Gust Speed 24 mph    
Visibility 10 miles    
Events      
Averages and records for this station are not official NWS values.
T = Trace of Precipitation, MM = Missing Value Source: NWS Daily Summary

Daily Weather History Graph

Daily Weather History Graph

Search for Another Location

Airport or City:

Trip Planner

Search our weather history database for the weather conditions in past years. The results will help you decide how hot, cold, wet, or windy it might be!

Date:

Astronomy

Mar. 29, 2013 Rise Set
Actual Time 7:15 AM EDT 7:45 PM EDT
Civil Twilight 6:49 AM EDT 8:11 PM EDT
Nautical Twilight 6:18 AM EDT 8:42 PM EDT
Astronomical Twilight 5:47 AM EDT 9:13 PM EDT
Moon 10:38 PM EDT (3/29) 8:27 AM EDT (3/29)
Length of Visible Light 13h 22m
Length of Day
12h 30m
Waning Gibbous, 93% of the Moon is Illuminated
Mar 29
Waning Gibbous
Apr 3
Last Quarter
Apr 10
New
Apr 18
First Quarter
Apr 25
Full

Hourly Weather History & Observations

Time (EDT) Temp. Windchill Dew Point Humidity Pressure Visibility Wind Dir Wind Speed Gust Speed Precip Events Conditions
12:15 AM 34.0 °F 29.8 °F 23.4 °F 65% 30.29 in 10.0 mi WNW 4.6 mph - N/A   Clear
12:35 AM 34.2 °F 30.0 °F 23.0 °F 64% 30.28 in 10.0 mi West 4.6 mph - N/A   Clear
12:55 AM 32.4 °F 27.9 °F 23.2 °F 69% 30.28 in 10.0 mi WSW 4.6 mph - N/A   Clear
1:15 AM 32.7 °F 27.3 °F 23.4 °F 68% 30.28 in 10.0 mi WSW 5.8 mph - N/A   Clear
1:35 AM 32.5 °F 28.1 °F 23.9 °F 70% 30.28 in 10.0 mi West 4.6 mph - N/A   Clear
1:55 AM 32.0 °F 27.5 °F 24.3 °F 73% 30.29 in 10.0 mi West 4.6 mph - N/A   Clear
2:15 AM 31.3 °F 26.6 °F 23.9 °F 74% 30.29 in 10.0 mi WSW 4.6 mph - N/A   Clear
2:35 AM 30.4 °F 24.5 °F 24.4 °F 79% 30.29 in 10.0 mi WSW 5.8 mph - N/A   Clear
2:55 AM 30.2 °F 26.7 °F 23.7 °F 77% 30.29 in 10.0 mi SW 3.5 mph - N/A   Clear
3:15 AM 30.9 °F - 23.2 °F 73% 30.28 in 10.0 mi Calm Calm - N/A   Clear
3:35 AM 30.9 °F - 23.5 °F 74% 30.28 in 10.0 mi Calm Calm - N/A   Clear
3:55 AM 30.6 °F 27.1 °F 23.5 °F 75% 30.28 in 10.0 mi SW 3.5 mph - N/A   Clear
4:15 AM 28.9 °F - 23.4 °F 80% 30.28 in 10.0 mi Calm Calm - N/A   Clear
4:35 AM 28.9 °F - 23.7 °F 81% 30.28 in 10.0 mi Calm Calm - N/A   Clear
4:55 AM 28.8 °F - 23.4 °F 80% 30.28 in 10.0 mi Calm Calm - N/A   Clear
5:15 AM 28.4 °F - 23.2 °F 81% 30.28 in 10.0 mi Calm Calm - N/A   Clear
5:35 AM 28.6 °F - 23.5 °F 81% 30.28 in 10.0 mi Calm Calm - N/A   Clear
5:55 AM 28.0 °F - 23.2 °F 82% 30.28 in 10.0 mi Calm Calm - N/A   Clear
6:15 AM 27.5 °F - 23.2 °F 84% 30.29 in 10.0 mi Calm Calm - N/A   Clear
6:35 AM 26.6 °F - 22.8 °F 86% 30.29 in 10.0 mi Calm Calm - N/A   Clear
6:55 AM 26.6 °F - 23.0 °F 86% 30.30 in 10.0 mi Calm Calm - N/A   Clear
7:15 AM 27.0 °F - 23.4 °F 86% 30.30 in 10.0 mi Calm Calm - N/A   Clear
7:35 AM 26.4 °F - 24.3 °F 92% 30.30 in 10.0 mi Calm Calm - N/A   Clear
7:55 AM 27.3 °F - 24.6 °F 90% 30.30 in 10.0 mi Calm Calm - N/A   Clear
8:15 AM 28.4 °F - 25.7 °F 90% 30.31 in 10.0 mi Calm Calm - N/A   Clear
8:35 AM 30.6 °F - 26.4 °F 85% 30.30 in 10.0 mi Calm Calm - N/A   Clear
8:55 AM 33.1 °F - 27.1 °F 79% 30.30 in 10.0 mi Calm Calm - N/A   Clear
9:15 AM 36.3 °F - 27.9 °F 71% 30.30 in 10.0 mi Calm Calm - N/A   Clear
9:35 AM 38.3 °F 33.9 °F 26.6 °F 63% 30.30 in 10.0 mi WSW 5.8 mph - N/A   Clear
9:55 AM 39.6 °F 35.4 °F 24.4 °F 55% 30.31 in 10.0 mi SW 5.8 mph - N/A   Clear
10:15 AM 41.7 °F 36.7 °F 26.6 °F 55% 30.31 in 10.0 mi WSW 8.1 mph - N/A   Clear
10:35 AM 43.0 °F 38.2 °F 25.7 °F 51% 30.31 in 10.0 mi WSW 8.1 mph - N/A   Clear
10:55 AM 44.1 °F 39.5 °F 25.2 °F 47% 30.31 in 10.0 mi WSW 8.1 mph - N/A   Clear
11:15 AM 44.6 °F 39.7 °F 24.4 °F 45% 30.30 in 10.0 mi SW 9.2 mph - N/A   Clear
11:35 AM 45.7 °F 42.0 °F 25.7 °F 46% 30.30 in 10.0 mi SW 6.9 mph - N/A   Clear
11:55 AM 46.0 °F 42.5 °F 25.2 °F 44% 30.30 in 10.0 mi WSW 6.9 mph - N/A   Clear
12:15 PM 46.4 °F 41.5 °F 23.7 °F 41% 30.29 in 10.0 mi WSW 10.4 mph - N/A   Clear
12:55 PM 46.8 °F - 24.4 °F 42% 30.28 in 10.0 mi WSW 8.1 mph 16.1 mph N/A   Clear
1:15 PM 48.2 °F - 26.4 °F 43% 30.28 in 10.0 mi WSW 10.4 mph 17.3 mph N/A   Clear
1:35 PM 48.7 °F - 26.4 °F 42% 30.27 in 10.0 mi WSW 8.1 mph 18.4 mph N/A   Clear
1:55 PM 49.3 °F - 24.3 °F 38% 30.25 in 10.0 mi WSW 11.5 mph 17.3 mph N/A   Clear
2:15 PM 50.2 °F - 23.5 °F 35% 30.25 in 10.0 mi West 12.7 mph 17.3 mph N/A   Clear
2:35 PM 51.1 °F - 23.2 °F 34% 30.24 in 10.0 mi West 10.4 mph 17.3 mph N/A   Clear
2:55 PM 52.0 °F - 19.2 °F 28% 30.23 in 10.0 mi WNW 11.5 mph 18.4 mph N/A   Clear
3:15 PM 52.3 °F - 20.5 °F 29% 30.22 in 10.0 mi West 16.1 mph 21.9 mph N/A   Scattered Clouds
3:35 PM 52.3 °F - 19.8 °F 28% 30.21 in 10.0 mi NW 11.5 mph 24.2 mph N/A   Scattered Clouds
3:55 PM 53.1 °F - 19.6 °F 27% 30.21 in 10.0 mi West 15.0 mph 21.9 mph N/A   Clear
4:15 PM 53.2 °F - 18.1 °F 25% 30.20 in 10.0 mi WNW 15.0 mph 24.2 mph N/A   Clear
4:35 PM 53.6 °F - 19.8 °F 27% 30.20 in 10.0 mi West 8.1 mph 19.6 mph N/A   Clear
4:55 PM 53.6 °F - 19.8 °F 27% 30.19 in 10.0 mi West 16.1 mph 24.2 mph N/A   Clear
5:15 PM 53.1 °F - 20.5 °F 28% 30.19 in 10.0 mi WSW 13.8 mph - N/A   Clear
5:35 PM 53.1 °F - 19.9 °F 27% 30.19 in 10.0 mi SW 10.4 mph 21.9 mph N/A   Scattered Clouds
5:55 PM 52.7 °F - 21.6 °F 30% 30.19 in 10.0 mi WSW 11.5 mph - N/A   Scattered Clouds
6:15 PM 51.8 °F - 20.8 °F 30% 30.19 in 10.0 mi WSW 15.0 mph 20.7 mph N/A   Mostly Cloudy
6:35 PM 50.4 °F - 22.5 °F 34% 30.19 in 10.0 mi WSW 17.3 mph 24.2 mph N/A   Scattered Clouds
6:55 PM 48.9 °F - 22.5 °F 35% 30.20 in 10.0 mi WSW 11.5 mph 23.0 mph N/A   Scattered Clouds
7:15 PM 47.8 °F - 23.5 °F 39% 30.20 in 10.0 mi WSW 16.1 mph 20.7 mph N/A   Clear
7:35 PM 45.7 °F 38.8 °F 27.7 °F 49% 30.21 in 10.0 mi WSW 16.1 mph 23.0 mph N/A   Clear
7:55 PM 43.7 °F 36.9 °F 30.4 °F 59% 30.22 in 10.0 mi WSW 13.8 mph 19.6 mph N/A   Clear
8:15 PM 42.4 °F 35.3 °F 32.0 °F 67% 30.22 in 10.0 mi WSW 13.8 mph 19.6 mph N/A   Clear
8:35 PM 41.9 °F 34.3 °F 32.5 °F 69% 30.23 in 10.0 mi West 15.0 mph 20.7 mph N/A   Mostly Cloudy
8:55 PM 41.5 °F 34.2 °F 33.1 °F 72% 30.23 in 10.0 mi West 13.8 mph - N/A   Overcast
9:15 PM 41.2 °F 34.1 °F 33.3 °F 73% 30.23 in 10.0 mi West 12.7 mph - N/A   Overcast
9:35 PM 40.6 °F 34.3 °F 33.8 °F 77% 30.24 in 10.0 mi West 10.4 mph - N/A   Overcast
9:55 PM 40.5 °F 33.2 °F 33.8 °F 77% 30.24 in 10.0 mi West 12.7 mph - N/A   Overcast
10:15 PM 40.1 °F 33.2 °F 34.0 °F 79% 30.25 in 10.0 mi West 11.5 mph - N/A   Overcast
10:35 PM 39.7 °F 33.2 °F 34.2 °F 80% 30.25 in 10.0 mi West 10.4 mph - N/A   Overcast
10:55 PM 39.2 °F 31.6 °F 34.5 °F 83% 30.25 in 10.0 mi West 12.7 mph - N/A   Overcast
11:15 PM 38.8 °F 31.2 °F 34.7 °F 85% 30.25 in 10.0 mi West 12.7 mph - N/A   Mostly Cloudy
11:35 PM 38.3 °F 30.9 °F 36.1 °F 92% 30.25 in 10.0 mi West 11.5 mph - N/A   Scattered Clouds
11:55 PM 38.1 °F 31.2 °F 37.4 °F 97% 30.25 in 10.0 mi West 10.4 mph - N/A   Mostly Cloudy